[[{"header":{"parameterUnit":"m.s-1","parameterCategory":1,"la1":30.2991,"la2":30.254,"lo1":-89.0895,"lo2":-89.0444,"dy":0.0017,"dx":0.0017,"nx":28,"ny":28,"refTime":"2025-07-12T09:00:00:Z","depth":0,"parameterNumber":2,"parameterNumberName":"U-component_of_WINDS"},"data":[0,0,0,0,0,0,0,0,0,0,0,0,0,0,0,0,0,0,0,0,0,0,0,0,0,0,0,0,0,0,0,0,0,0,0,0,0,0,0,0,0,0,0,0,0,0,0,0,0,0,0,0,0,0,0,0,0,0,-0.6853,-0.6852,0,-0.677,-0.6769,-0.6768,-0.6716,-0.6716,-0.6716,-0.6715,-0.663,-0.6628,-0.6626,0,0,0,0,0,0,0,0,0,0,0,0,0,-0.6966,-0.6964,-0.6853,-0.6852,-0.6851,-0.6771,-0.6769,-0.6768,-0.6716,-0.6716,-0.6716,-0.6715,-0.663,-0.6628,-0.6626,0,0,0,0,0,0,0,0,0,0,0,0,0,-0.6903,-0.6963,-0.6853,-0.6815,-0.6811,-0.6771,-0.6769,-0.6768,-0.6716,-0.6716,-0.6715,-0.6715,-0.6631,-0.6628,-0.6625,-0.6616,0,0,-0.6616,-0.6615,0,0,0,0,0,0,0,0,-0.6907,-0.6899,-0.6822,-0.6818,-0.6813,-0.6753,-0.6778,-0.6717,-0.6716,-0.6752,-0.6715,-0.6715,-0.6671,-0.6665,-0.665,-0.6612,-0.6608,-0.6616,-0.6614,-0.6613,-0.6612,0,0,0,0,0,0,0,-0.6911,-0.6902,-0.682,-0.6821,-0.6816,-0.6802,-0.6793,-0.6766,-0.6715,-0.6749,-0.6745,-0.6736,-0.6669,-0.6653,-0.6648,-0.6607,-0.6616,-0.6613,-0.6611,-0.661,-0.6557,-0.6557,0,0,0,0,0,0,-0.6922,-0.6906,-0.6823,-0.6818,-0.686,-0.6801,-0.679,-0.6773,-0.6715,-0.6706,-0.6737,-0.6734,-0.6659,-0.6651,-0.6645,-0.6629,-0.6613,-0.661,-0.6608,-0.6556,-0.6557,-0.6557,0,0,0,0,0,0,-0.6924,-0.6915,-0.6826,-0.6861,-0.6849,-0.6799,-0.678,-0.6771,-0.6756,-0.6706,-0.6696,-0.673,-0.6658,-0.6649,-0.6623,-0.6626,-0.6608,-0.6606,-0.6556,-0.6556,-0.6557,-0.66,0,0,0,0,0,0,-0.6928,-0.6916,-0.6912,-0.6861,-0.6847,-0.6807,-0.678,-0.677,-0.6751,-0.6747,-0.6697,-0.6689,-0.6657,-0.6628,-0.662,-0.6621,-0.6603,-0.6555,-0.6556,-0.6557,-0.6598,-0.6602,-0.6605,0,0,0,0,0,-0.6932,-0.6927,-0.6912,-0.6902,-0.6841,-0.6807,-0.6799,-0.6762,-0.6752,-0.6747,-0.6715,-0.669,-0.6627,-0.6626,-0.6617,-0.6617,-0.6555,-0.6556,-0.6557,-0.6596,-0.6601,-0.6605,0,0,0,0,0,0,-0.6978,-0.6919,-0.6902,-0.6881,-0.6849,-0.6798,-0.6791,-0.6768,-0.6739,-0.6736,-0.6692,-0.6682,-0.6661,-0.6636,-0.6636,-0.6605,-0.6588,-0.6587,-0.6621,-0.6625,-0.6629,-0.6635,-0.6601,0,0,0,0,0,-0.6986,-0.6964,-0.6913,-0.6899,-0.6884,-0.6841,-0.6824,-0.6799,-0.6765,-0.6751,-0.6717,-0.6684,-0.6657,-0.664,-0.6612,-0.6594,-0.6583,-0.659,-0.6594,-0.6597,-0.6596,-0.6585,-0.6588,-0.656,-0.656,-0.656,0,0,-0.7002,-0.6967,-0.6955,-0.6908,-0.688,-0.6858,-0.683,-0.6807,-0.679,-0.6747,-0.6721,-0.6696,-0.6656,-0.6635,-0.6624,-0.6614,-0.6602,-0.6598,-0.6601,-0.6598,-0.6587,-0.6589,-0.6592,-0.656,-0.656,-0.656,0,0,-0.7018,-0.699,-0.6975,-0.6949,-0.6908,-0.6879,-0.6876,-0.6828,-0.681,-0.6783,-0.6751,-0.673,-0.6684,-0.6657,-0.6638,-0.6646,-0.6623,-0.6639,-0.6657,-0.6647,-0.6649,-0.6651,-0.6654,-0.6655,-0.6638,-0.6638,-0.6639,0,-0.7043,-0.7008,-0.697,-0.695,-0.693,-0.6891,-0.6876,-0.6852,-0.6804,-0.6791,-0.6781,-0.6723,-0.6694,-0.6666,-0.6668,-0.6654,-0.6649,-0.6643,-0.6652,-0.6653,-0.6654,-0.6656,-0.6658,-0.6641,-0.664,-0.664,-0.664,0,-0.704,-0.7016,-0.7009,-0.6965,-0.6944,-0.6926,-0.6886,-0.687,-0.6847,-0.6819,-0.6793,-0.6757,-0.6721,-0.6713,-0.669,-0.6682,-0.6677,-0.666,-0.6642,-0.666,-0.6661,-0.6662,-0.6644,-0.6643,-0.6642,-0.6642,0,0,-0.7082,-0.7018,-0.7016,-0.6995,-0.6948,-0.6929,-0.691,-0.6876,-0.6863,-0.6832,-0.6814,-0.6777,-0.6761,-0.6739,-0.6713,-0.6705,-0.6714,-0.6688,-0.6687,-0.6694,-0.6703,-0.6715,-0.6717,-0.6698,-0.6698,-0.6698,-0.6706,0,-0.7091,-0.7055,-0.7021,-0.6997,-0.6975,-0.6939,-0.6922,-0.6891,-0.6865,-0.6843,-0.6814,-0.6788,-0.677,-0.6756,-0.6746,-0.6715,-0.6715,-0.6714,-0.6681,-0.6681,-0.6692,-0.6717,-0.673,-0.6739,-0.6706,-0.6706,-0.6706,0,-0.7097,-0.7068,-0.7042,-0.6998,-0.6987,-0.6973,-0.6939,-0.6918,-0.6883,-0.6865,-0.6841,-0.6814,-0.6792,-0.6778,-0.6747,-0.6747,-0.6732,-0.6715,-0.6715,-0.6709,-0.6694,-0.6713,-0.6741,-0.6742,-0.6707,-0.6707,-0.6707,0,-0.713,-0.7085,-0.7063,-0.7047,-0.6995,-0.6986,-0.6964,-0.6928,-0.691,-0.6881,-0.6868,-0.6837,-0.682,-0.6796,-0.6761,-0.6754,-0.6734,-0.6717,-0.6718,-0.6719,-0.6715,-0.6716,-0.6741,-0.6707,-0.6707,-0.6707,-0.6707,0,-0.7144,-0.7129,-0.7078,-0.7064,-0.7047,-0.7009,-0.6992,-0.6967,-0.6936,-0.6917,-0.6885,-0.6868,-0.6823,-0.6801,-0.6774,-0.6753,-0.6745,-0.673,-0.6723,-0.6732,-0.6734,-0.6721,-0.6719,-0.6707,-0.6707,-0.6707,-0.6707,0,-0.7177,-0.7142,-0.7116,-0.707,-0.7058,-0.7047,-0.7007,-0.6993,-0.6966,-0.6943,-0.6935,-0.6892,-0.6865,-0.6828,-0.6789,-0.6771,-0.6753,-0.6742,-0.6765,-0.676,-0.6764,-0.6764,-0.6781,-0.6781,-0.6748,-0.6748,-0.6749,0,-0.7188,-0.7176,-0.7129,-0.7114,-0.7093,-0.707,-0.7051,-0.7014,-0.6996,-0.6956,-0.6946,-0.6916,-0.689,-0.6848,-0.6813,-0.6783,-0.6771,-0.6779,-0.6766,-0.6777,-0.6771,-0.6772,-0.677,-0.6782,-0.6783,-0.6783,-0.6784,0,-0.7211,-0.7194,-0.7169,-0.7138,-0.7117,-0.7091,-0.7063,-0.7053,-0.7009,-0.6991,-0.6963,-0.6943,-0.6903,-0.6874,-0.684,-0.6817,-0.6793,-0.6788,-0.6787,-0.6796,-0.681,-0.6802,-0.6773,-0.6788,-0.6787,-0.6787,-0.6787,-0.6787,-0.7233,-0.722,-0.7185,-0.7159,-0.7134,-0.7109,-0.7094,-0.7065,-0.7041,-0.7006,-0.6985,-0.6958,-0.6924,-0.6876,-0.6854,-0.6832,-0.6823,-0.6821,-0.682,-0.682,-0.6824,-0.6814,-0.6826,-0.6826,-0.6826,-0.6825,-0.6825,0,-0.7253,-0.7229,-0.7205,-0.7168,-0.7147,-0.7127,-0.7096,-0.708,-0.7056,-0.7026,-0.7002,-0.697,-0.6941,-0.6905,-0.6875,-0.6864,-0.6852,-0.6857,-0.6857,-0.6852,-0.6834,-0.6838,-0.6867,-0.6867,-0.6867,-0.6867,-0.6867,-0.6867,-0.7261,-0.724,-0.7219,-0.7186,-0.7162,-0.7135,-0.7119,-0.7096,-0.7072,-0.7038,-0.7014,-0.6991,-0.6959,-0.6926,-0.6899,-0.6889,-0.6879,-0.6888,-0.6874,-0.6857,-0.6854,-0.685,-0.6854,-0.6886,-0.6886,-0.6895,-0.6895,-0.6895]},{"header":{"parameterUnit":"m.s-1","parameterCategory":1,"la1":30.2991,"la2":30.254,"lo1":-89.0895,"lo2":-89.0444,"dy":0.0017,"dx":0.0017,"nx":28,"ny":28,"refTime":"2025-07-12T09:00:00:Z","depth":0,"parameterNumber":3,"parameterNumberName":"V-component_of_WINDS"},"data":[0,0,0,0,0,0,0,0,0,0,0,0,0,0,0,0,0,0,0,0,0,0,0,0,0,0,0,0,0,0,0,0,0,0,0,0,0,0,0,0,0,0,0,0,0,0,0,0,0,0,0,0,0,0,0,0,0,0,1.4417,1.4416,0,1.4381,1.4381,1.438,1.4403,1.4404,1.4405,1.4406,1.4367,1.4365,1.4363,0,0,0,0,0,0,0,0,0,0,0,0,0,1.45,1.4499,1.4417,1.4416,1.4416,1.4381,1.4381,1.438,1.4403,1.4404,1.4405,1.4406,1.4367,1.4365,1.4362,0,0,0,0,0,0,0,0,0,0,0,0,0,1.4464,1.4498,1.4417,1.4423,1.4423,1.4381,1.4381,1.438,1.4402,1.4404,1.4406,1.4407,1.4368,1.4365,1.4362,1.4311,0,0,1.4353,1.4351,0,0,0,0,0,0,0,0,1.4466,1.4461,1.4422,1.4422,1.4423,1.4398,1.4396,1.4357,1.4402,1.441,1.4406,1.4408,1.4376,1.4372,1.4362,1.431,1.4308,1.4352,1.4351,1.4349,1.4348,0,0,0,0,0,0,0,1.4469,1.4463,1.4403,1.4422,1.4422,1.4426,1.4423,1.4389,1.4384,1.441,1.4411,1.4407,1.4376,1.4365,1.4361,1.4307,1.4353,1.435,1.4348,1.4347,1.4209,1.4207,0,0,0,0,0,0,1.4471,1.4465,1.4404,1.4402,1.4449,1.4423,1.442,1.4404,1.4385,1.4383,1.4405,1.4408,1.4369,1.4365,1.436,1.4297,1.4349,1.4346,1.4345,1.421,1.4208,1.4206,0,0,0,0,0,0,1.4473,1.4466,1.4405,1.4434,1.4426,1.442,1.4403,1.4403,1.4392,1.4382,1.4381,1.4395,1.437,1.4364,1.4323,1.4296,1.4345,1.4342,1.4213,1.421,1.4207,1.4171,0,0,0,0,0,0,1.4475,1.4466,1.4448,1.4433,1.4425,1.437,1.4401,1.4401,1.4387,1.4389,1.4371,1.437,1.4371,1.4327,1.432,1.4292,1.434,1.4215,1.4211,1.4208,1.4175,1.4168,1.4162,0,0,0,0,0,1.4478,1.4439,1.4447,1.4439,1.4402,1.4368,1.4363,1.4366,1.4384,1.4365,1.4358,1.4371,1.43,1.4323,1.4315,1.4286,1.4217,1.4212,1.4208,1.4178,1.4169,1.4162,0,0,0,0,0,0,1.445,1.4437,1.4446,1.4401,1.4385,1.4372,1.4348,1.4357,1.4336,1.4339,1.4343,1.4338,1.4294,1.4287,1.4312,1.4234,1.4261,1.4255,1.4241,1.4232,1.4226,1.4227,1.4337,0,0,0,0,0,1.4439,1.4414,1.4404,1.4365,1.4357,1.4354,1.4339,1.4343,1.4327,1.432,1.431,1.4293,1.4267,1.425,1.4226,1.4175,1.4169,1.4151,1.4144,1.4139,1.4133,1.4102,1.4093,1.4193,1.4193,1.4193,0,0,1.4415,1.4405,1.4389,1.4359,1.4348,1.432,1.4348,1.4318,1.4297,1.4315,1.4275,1.4267,1.4249,1.4201,1.418,1.4193,1.4104,1.4133,1.4129,1.4126,1.4097,1.4087,1.4079,1.419,1.419,1.4191,0,0,1.4357,1.4348,1.4313,1.4301,1.4284,1.4282,1.4273,1.4258,1.4254,1.4214,1.4226,1.4201,1.4157,1.4142,1.4128,1.4063,1.4072,1.4055,1.4019,1.399,1.3982,1.3975,1.3949,1.394,1.405,1.405,1.405,0,1.4329,1.4289,1.4294,1.4263,1.4248,1.4264,1.4228,1.4216,1.4191,1.4179,1.4195,1.4138,1.4127,1.4075,1.4059,1.4049,1.4037,1.4056,1.3983,1.3976,1.3969,1.3944,1.3935,1.4048,1.4048,1.4048,1.4048,0,1.4254,1.4226,1.42,1.4175,1.4158,1.4125,1.4123,1.4105,1.411,1.4106,1.4063,1.405,1.4022,1.4011,1.4016,1.3959,1.3967,1.3983,1.4009,1.3957,1.3934,1.3925,1.4044,1.4045,1.4046,1.4046,0,0,1.4176,1.4155,1.4145,1.4132,1.4114,1.4091,1.4058,1.4031,1.4014,1.3996,1.3966,1.3928,1.3942,1.3926,1.3929,1.3904,1.3849,1.3922,1.3922,1.3906,1.3783,1.3769,1.3758,1.3857,1.3855,1.3853,1.3783,0,1.4114,1.4056,1.4059,1.4004,1.3976,1.3991,1.3961,1.3945,1.394,1.3915,1.391,1.3881,1.3903,1.3894,1.3869,1.3861,1.3824,1.3867,1.3826,1.3824,1.3827,1.3746,1.3732,1.3666,1.3774,1.3773,1.3772,0,1.4035,1.4014,1.3955,1.3939,1.3927,1.3901,1.3875,1.3852,1.3834,1.3832,1.3814,1.3821,1.3785,1.3814,1.3763,1.3792,1.3776,1.3769,1.3767,1.376,1.3793,1.3735,1.3646,1.3635,1.3758,1.3759,1.376,0,1.3979,1.3937,1.3896,1.3886,1.3866,1.3847,1.3838,1.3821,1.3804,1.3782,1.377,1.3744,1.3729,1.3707,1.3706,1.3728,1.3653,1.3683,1.3648,1.3648,1.3629,1.363,1.3533,1.3624,1.3624,1.3624,1.3625,0,1.3909,1.3871,1.3871,1.3845,1.3803,1.3808,1.3766,1.3758,1.3743,1.3715,1.3727,1.37,1.3701,1.3674,1.3673,1.3628,1.3622,1.3618,1.3617,1.3615,1.3615,1.3602,1.3605,1.3622,1.3622,1.3623,1.3623,0,1.3839,1.3838,1.3793,1.3778,1.3774,1.3743,1.373,1.3704,1.3701,1.3665,1.3657,1.365,1.3618,1.3615,1.3578,1.3577,1.3522,1.3529,1.3528,1.3528,1.3492,1.3494,1.3381,1.3365,1.3469,1.3468,1.3467,0,1.3793,1.3764,1.3746,1.3728,1.3718,1.369,1.3672,1.3675,1.3656,1.3632,1.3609,1.3578,1.3553,1.3501,1.3491,1.3462,1.3466,1.3428,1.3461,1.3459,1.3461,1.3462,1.3457,1.3421,1.342,1.3419,1.3418,0,1.3709,1.3709,1.3684,1.3658,1.3637,1.3616,1.3597,1.3582,1.3582,1.3559,1.3527,1.3507,1.3469,1.3437,1.3408,1.3397,1.3406,1.3408,1.3398,1.3393,1.3393,1.3389,1.3507,1.341,1.3411,1.3411,1.3412,1.3412,1.3647,1.3622,1.3604,1.3575,1.3561,1.3543,1.3517,1.351,1.3483,1.3452,1.3456,1.3419,1.3399,1.3362,1.3348,1.3318,1.3331,1.3317,1.3312,1.3308,1.3303,1.34,1.3314,1.3314,1.3314,1.3314,1.3314,0,1.3561,1.3551,1.3524,1.3497,1.3473,1.3486,1.3465,1.3444,1.3411,1.3393,1.3368,1.3329,1.3298,1.3286,1.3255,1.3233,1.3236,1.3224,1.3224,1.3221,1.3295,1.3306,1.3222,1.3222,1.3222,1.3222,1.3222,1.3222,1.3514,1.347,1.3468,1.3417,1.3407,1.3371,1.3357,1.3339,1.3325,1.3281,1.3255,1.3248,1.3232,1.3199,1.317,1.3168,1.3154,1.314,1.3138,1.3207,1.3216,1.3225,1.3235,1.3138,1.3138,1.3067,1.3066,1.3065]}]]